{"data":{"norad_id":59616,"intl_designator":"2024-080R","name":"STARLINK-31768","alt_names":[],"object_type":"PAYLOAD","status":"ACTIVE","operator":null,"country":"US","launch_date":"2024-04-28","launch_site_code":"AFETR","launch_vehicle":null,"mission":null,"orbit_class":"UNKNOWN","rcs_meters":null,"size_class":null,"mass_kg":null,"dimensions":null,"purposes":["comms"],"wikipedia_slug":null,"has_3d_model":false,"image_url":null,"decayed_at":null,"tle_current":{"epoch":"2026-05-24T19:31:17.000544Z","epoch_age_seconds":91134,"freshness":"FRESH","line1":"1 59616U 24080R   26144.81339121  .00001128  00000+0  50481-4 0  9999","line2":"2 59616  43.0036 328.0991 0000965 233.8378 126.2385 15.27587512116177","mean_motion":15.27587512,"eccentricity":9.65e-5,"inclination_deg":43.0036,"raan_deg":328.0991,"arg_perigee_deg":233.8378,"mean_anomaly_deg":126.2385,"bstar":5.0481e-5,"rev_number":11617,"period_min":94.266285151459,"perigee_km":482.36450021376,"apogee_km":483.68870478904,"semimajor_km":6861.1636025014,"source":"CELESTRAK","updated_at":"2026-05-25T13:38:19.010772Z"}}}